Terminal Aerodrome Forecast
Issued by NWS Louisville, KY

Home | Current Version | Previous Version | Text Only | Print | Product List | Glossary On
Versions: 1 2 3 4 5 6 7 8 9 10 11 12 13 14 15 16 17
000
FTUS43 KLMK 272300
TAFBWG
TAF
KBWG 272338Z 2800/2824 12004KT P6SM SCT040
     FM280500 00000KT 5SM BR SKC
     FM281100 00000KT 1SM BR SKC
     FM281400 08004KT P6SM SCT040=

USA.gov is the U.S. government's official web portal to all federal, state and local government web resources and services.